M I D A S
Marine Information and Data Acquisition System
Tripno 2058 of the Zeeleeuw from 2011-03-15 07:59:48 to 2011-03-15 15:20:23
Back to CruiseResearch ActivitiesStationsMapUnderway DataData graphs

EquipmentUnitsComments
TimeDGPSUTC
LatitudeDGPSDM.mWGS84
LongitudeDGPSDM.mWGS84
SpeedMeteo Stationm/sRelative wind speed
DirectionMeteo StationdegRelative wind direction
TemperatureMeteo Stationdeg CelciusAir temperature
PressureMeteo StationPaAtmospheric pressure
HumidityMeteo Station%Relative humidity
Missing or incorrect values are displayed as -999
Metereological data collected by the RV Zeeleeuw from 2011-03-15 07:57:52 to 2011-03-15 15:27:58
Time Latitude Longitude Speed Direction Temperature Pressure Humidity
2011-03-15 07:58 51°13.662 2°55.961 -999 316 7.9 101510 51
2011-03-15 07:59 51°13.661 2°55.961 -999 322 7.9 101510 51
2011-03-15 08:00 51°13.669 2°55.927 -999 318 7.8 101510 51
2011-03-15 08:01 51°13.688 2°55.832 -999 322 7.9 101510 50
2011-03-15 08:02 51°13.697 2°55.737 0.5 330 7.8 101510 51
2011-03-15 08:03 51°13.706 2°55.731 3.3 -999 7.8 101510 50
2011-03-15 08:04 51°13.705 2°55.732 1.2 25 7.8 101500 51
2011-03-15 08:05 51°13.747 2°55.701 3.5 10 7.8 101500 51
2011-03-15 08:06 51°13.872 2°55.608 3.3 -999 7.8 101500 50
2011-03-15 08:07 51°14.021 2°55.498 -999 1 7.8 101500 51
2011-03-15 08:08 51°14.18 2°55.379 1.1 355 7.8 101500 51
2011-03-15 08:09 51°14.343 2°55.229 1.8 12 7.8 101490 50
2011-03-15 08:10 51°14.51 2°55.051 2.8 7 7.8 101490 52
2011-03-15 08:11 51°14.692 2°54.865 2.8 5 7.7 101490 49
2011-03-15 08:12 51°14.867 2°54.667 2.7 10 7.7 101490 52
2011-03-15 08:13 51°15.034 2°54.451 0.1 6 7.7 101500 49
2011-03-15 08:14 51°15.2 2°54.228 -999 5 7.6 101490 51
2011-03-15 08:15 51°15.369 2°54.01 -999 11 7.6 101490 51
2011-03-15 08:16 51°15.541 2°53.801 -999 4 7.6 101490 51
2011-03-15 08:17 51°15.714 2°53.595 -999 2 7.5 101490 50
2011-03-15 08:18 51°15.895 2°53.406 7.2 1 7.5 101490 51
2011-03-15 08:19 51°16.091 2°53.253 8.4 2 7.4 101480 52
2011-03-15 08:20 51°16.288 2°53.098 6.1 4 7.4 101470 52
2011-03-15 08:21 51°16.485 2°52.942 8.1 2 7.4 101470 51
2011-03-15 08:22 51°16.682 2°52.788 8.3 2 7.3 101470 51
2011-03-15 08:23 51°16.877 2°52.632 6.3 1 7.3 101470 51
2011-03-15 08:24 51°17.076 2°52.486 8.1 -999 7.3 101470 50
2011-03-15 08:25 51°17.277 2°52.341 9.2 5 7.2 101470 51
2011-03-15 08:26 51°17.478 2°52.19 7.3 1 7.2 101480 49
2011-03-15 08:27 51°17.68 2°52.042 8.9 360 7.2 101470 51
2011-03-15 08:28 51°17.879 2°51.893 9.2 360 7.1 101480 49
2011-03-15 08:29 51°18.078 2°51.748 8.3 2 7.1 101480 49
2011-03-15 08:30 51°18.277 2°51.599 7.8 359 7.1 101480 49
2011-03-15 08:31 51°18.477 2°51.451 8 359 6.9 101480 51
2011-03-15 08:32 51°18.678 2°51.302 8.5 2 6.8 101480 50
2011-03-15 08:33 51°18.88 2°51.155 8.8 2 6.7 101470 50
2011-03-15 08:34 51°19.083 2°51.005 7.2 3 6.7 101480 51
2011-03-15 08:35 51°19.284 2°50.852 7.5 3 6.6 101480 51
2011-03-15 08:36 51°19.487 2°50.697 7.1 2 6.6 101480 51
2011-03-15 08:37 51°19.689 2°50.543 8.8 358 6.5 101470 50
2011-03-15 08:38 51°19.89 2°50.384 9.1 1 6.5 101470 49
2011-03-15 08:39 51°20.094 2°50.24 10.3 359 6.5 101470 49
2011-03-15 08:40 51°20.321 2°50.214 10.7 352 6.5 101450 51
2011-03-15 08:41 51°20.548 2°50.205 11.5 355 6.5 101470 51
2011-03-15 08:42 51°20.776 2°50.193 10.4 354 6.5 101450 50
2011-03-15 08:43 51°21.006 2°50.191 11.2 356 6.6 101450 51
2011-03-15 08:44 51°21.233 2°50.176 11.9 359 6.6 101450 50
2011-03-15 08:45 51°21.441 2°50.049 9.4 9 6.6 101460 51
2011-03-15 08:46 51°21.626 2°49.852 9.6 11 6.6 101470 51
2011-03-15 08:47 51°21.808 2°49.647 9 12 6.6 101470 49
2011-03-15 08:48 51°21.969 2°49.406 6.5 12 6.6 101470 51
2011-03-15 08:49 51°22.126 2°49.157 7.2 11 6.7 101480 50
2011-03-15 08:50 51°22.273 2°48.896 5.1 15 6.7 101480 52
2011-03-15 08:51 51°22.392 2°48.607 3.8 18 6.7 101480 52
2011-03-15 08:52 51°22.502 2°48.315 3.6 17 6.7 101470 49
2011-03-15 08:53 51°22.615 2°48.026 3.5 22 6.7 101480 51
2011-03-15 08:54 51°22.725 2°47.736 -999 21 6.7 101480 50
2011-03-15 08:55 51°22.829 2°47.438 2.3 18 6.7 101480 52
2011-03-15 08:56 51°22.925 2°47.137 3.2 24 6.7 101480 52
2011-03-15 08:57 51°23.021 2°46.835 3.1 23 6.8 101490 52
2011-03-15 08:58 51°23.127 2°46.542 3.9 21 6.8 101480 53
2011-03-15 08:59 51°23.235 2°46.247 2.9 21 6.8 101480 50
2011-03-15 09:00 51°23.343 2°45.952 3 17 6.8 101480 50
2011-03-15 09:01 51°23.452 2°45.654 3 20 6.8 101490 50
2011-03-15 09:02 51°23.56 2°45.356 3.5 22 6.8 101490 49
2011-03-15 09:03 51°23.681 2°45.068 4.7 16 6.8 101490 49
2011-03-15 09:04 51°23.799 2°44.778 3.1 16 6.9 101490 49
2011-03-15 09:05 51°23.906 2°44.48 3.9 23 6.9 101500 51
2011-03-15 09:06 51°24.008 2°44.178 2.9 27 6.9 101500 49
2011-03-15 09:07 51°24.131 2°43.899 5.1 16 6.9 101500 53
2011-03-15 09:08 51°24.314 2°43.709 9.2 8 6.9 101480 52
2011-03-15 09:09 51°24.449 2°43.681 7.9 9 6.9 101490 51
2011-03-15 09:10 51°24.525 2°43.693 9.7 10 6.9 101500 51
2011-03-15 09:11 51°24.58 2°43.709 7.5 11 6.9 101490 49
2011-03-15 09:12 51°24.626 2°43.722 8.1 16 6.9 101490 52
2011-03-15 09:13 51°24.665 2°43.724 9.3 25 6.9 101480 52
2011-03-15 09:14 51°24.685 2°43.724 9.9 20 7 101480 52
2011-03-15 09:15 51°24.703 2°43.725 7 14 6.9 101480 50
2011-03-15 09:16 51°24.718 2°43.727 7.6 16 6.9 101470 50
2011-03-15 09:17 51°24.704 2°43.729 10.7 29 7 101480 49
2011-03-15 09:18 51°24.673 2°43.76 7.4 37 7 101470 51
2011-03-15 09:19 51°24.664 2°43.786 6.3 32 7 101470 52
2011-03-15 09:20 51°24.672 2°43.73 7.7 34 7.1 101490 51
2011-03-15 09:21 51°24.678 2°43.72 7.4 36 7 101480 50
2011-03-15 09:22 51°24.682 2°43.713 8.3 271 7 101480 53
2011-03-15 09:23 51°24.685 2°43.712 5.2 265 7 101480 49
2011-03-15 09:24 51°24.687 2°43.714 10.1 259 7 101500 51
2011-03-15 09:25 51°24.677 2°43.722 9.5 256 7 101480 50
2011-03-15 09:26 51°24.66 2°43.722 6.3 268 7 101490 50
2011-03-15 09:27 51°24.655 2°43.722 8 259 7 101500 53
2011-03-15 09:28 51°24.654 2°43.726 12.6 256 7 101490 52
2011-03-15 09:29 51°24.656 2°43.731 9.6 252 7 101490 50
2011-03-15 09:30 51°24.655 2°43.737 7.8 260 7 101490 52
2011-03-15 09:31 51°24.647 2°43.737 4.4 266 7 101500 53
2011-03-15 09:32 51°24.657 2°43.742 4.6 266 7 101500 53
2011-03-15 09:33 51°24.666 2°43.738 7.7 33 7 101500 53
2011-03-15 09:34 51°24.66 2°43.717 6.2 36 7 101500 52
2011-03-15 09:35 51°24.657 2°43.707 6 265 7 101500 49
2011-03-15 09:36 51°24.659 2°43.707 5.7 265 7 101490 53
2011-03-15 09:37 51°24.664 2°43.71 8.6 257 7 101500 52
2011-03-15 09:38 51°24.671 2°43.715 9.5 257 7.1 101490 50
2011-03-15 09:39 51°24.676 2°43.722 7.4 252 7.1 101490 50
2011-03-15 09:40 51°24.681 2°43.729 3.8 251 7.1 101490 50
2011-03-15 09:41 51°24.687 2°43.736 4.3 250 7.1 101480 52
2011-03-15 09:42 51°24.692 2°43.743 6 252 7.1 101490 49
2011-03-15 09:43 51°24.698 2°43.75 5.8 248 7.1 101480 53
2011-03-15 09:44 51°24.694 2°43.758 6.2 260 7.1 101480 52
2011-03-15 09:45 51°24.674 2°43.751 2.3 42 7.1 101470 52
2011-03-15 09:46 51°24.66 2°43.72 2.5 36 7.1 101470 51
2011-03-15 09:47 51°24.657 2°43.702 3.1 32 7.1 101480 49
2011-03-15 09:48 51°24.659 2°43.699 4 268 7.1 101470 49
2011-03-15 09:49 51°24.663 2°43.704 6.4 259 7 101490 53
2011-03-15 09:50 51°24.67 2°43.71 7.6 259 7.1 101480 49
2011-03-15 09:51 51°24.677 2°43.717 7 255 7.1 101480 50
2011-03-15 09:52 51°24.682 2°43.724 6.9 253 7.1 101480 53
2011-03-15 09:53 51°24.688 2°43.731 5.7 253 7.1 101480 51
2011-03-15 09:54 51°24.694 2°43.737 8.8 254 7.1 101480 51
2011-03-15 09:55 51°24.7 2°43.741 7.7 256 7.1 101470 50
2011-03-15 09:56 51°24.707 2°43.747 8.7 256 7.1 101470 52
2011-03-15 09:57 51°24.702 2°43.762 8.8 241 7.1 101450 50
2011-03-15 09:58 51°24.692 2°43.85 9.1 333 7.2 101430 51
2011-03-15 09:59 51°24.778 2°43.969 9.7 348 7.1 101430 50
2011-03-15 10:00 51°24.939 2°44.102 9.5 356 7.1 101410 50
2011-03-15 10:01 51°25.161 2°44.13 10.2 355 7.1 101420 51
2011-03-15 10:02 51°25.391 2°44.156 12.4 354 7 101420 52
2011-03-15 10:03 51°25.626 2°44.185 11.9 354 7 101420 52
2011-03-15 10:04 51°25.851 2°44.237 12.3 350 7.1 101420 52
2011-03-15 10:05 51°26.06 2°44.402 14.7 344 7.1 101410 52
2011-03-15 10:06 51°26.218 2°44.677 11 338 7.1 101420 51
2011-03-15 10:07 51°26.367 2°44.969 12.2 342 7.1 101420 50
2011-03-15 10:08 51°26.535 2°45.234 13.7 343 7.1 101420 52
2011-03-15 10:09 51°26.702 2°45.499 12.3 342 7.1 101420 49
2011-03-15 10:10 51°26.879 2°45.754 13.4 346 7.1 101420 52
2011-03-15 10:11 51°27.066 2°45.97 9.5 344 7 101420 51
2011-03-15 10:12 51°27.254 2°46.193 12.1 346 7 101420 50
2011-03-15 10:13 51°27.444 2°46.415 11.6 346 7 101430 52
2011-03-15 10:14 51°27.635 2°46.631 10.3 344 7 101420 52
2011-03-15 10:15 51°27.824 2°46.851 12.5 343 7 101430 51
2011-03-15 10:16 51°28.018 2°47.069 10.7 345 7 101420 50
2011-03-15 10:17 51°28.207 2°47.299 10.6 342 7.1 101420 51
2011-03-15 10:18 51°28.396 2°47.532 11.9 343 7.1 101410 50
2011-03-15 10:19 51°28.586 2°47.76 10.4 344 7 101420 52
2011-03-15 10:20 51°28.774 2°47.993 12.4 343 7.1 101420 50
2011-03-15 10:21 51°28.962 2°48.225 10.3 340 7 101410 51
2011-03-15 10:22 51°29.145 2°48.469 9.8 339 7 101430 52
2011-03-15 10:23 51°29.32 2°48.728 9.8 339 7 101430 51
2011-03-15 10:24 51°29.497 2°48.984 12.1 339 6.9 101430 52
2011-03-15 10:25 51°29.674 2°49.239 10.4 341 6.9 101420 49
2011-03-15 10:26 51°29.851 2°49.496 10.9 339 6.9 101430 51
2011-03-15 10:27 51°30.027 2°49.751 10.3 338 6.9 101430 51
2011-03-15 10:28 51°30.203 2°50.006 12.7 339 6.9 101430 51
2011-03-15 10:29 51°30.381 2°50.257 12.1 340 6.9 101420 52
2011-03-15 10:30 51°30.552 2°50.518 13.3 336 6.9 101430 52
2011-03-15 10:31 51°30.682 2°50.831 13 335 7 101430 51
2011-03-15 10:32 51°30.812 2°51.147 10.7 337 6.9 101430 52
2011-03-15 10:33 51°30.946 2°51.461 12.3 337 6.9 101430 50
2011-03-15 10:34 51°31.08 2°51.772 11.2 336 7 101430 51
2011-03-15 10:35 51°31.176 2°51.999 8.7 337 6.9 101440 51
2011-03-15 10:36 51°31.234 2°52.14 7.6 334 7 101440 50
2011-03-15 10:37 51°31.263 2°52.327 7.9 326 7 101440 51
2011-03-15 10:38 51°31.282 2°52.507 8 321 7 101440 50
2011-03-15 10:39 51°31.285 2°52.579 7 247 7 101430 52
2011-03-15 10:40 51°31.299 2°52.591 7.5 256 7 101440 50
2011-03-15 10:41 51°31.31 2°52.598 5.6 260 7 101460 52
2011-03-15 10:42 51°31.319 2°52.603 4.5 260 7 101460 49
2011-03-15 10:43 51°31.322 2°52.611 5.4 257 7 101440 52
2011-03-15 10:44 51°31.318 2°52.621 4.7 257 7 101430 52
2011-03-15 10:45 51°31.312 2°52.63 4.5 257 7.1 101450 49
2011-03-15 10:46 51°31.307 2°52.637 -999 260 7.1 101460 51
2011-03-15 10:47 51°31.302 2°52.64 -999 263 7.1 101440 51
2011-03-15 10:48 51°31.3 2°52.639 -999 264 7.1 101430 51
2011-03-15 10:49 51°31.299 2°52.639 -999 263 7.1 101430 51
2011-03-15 10:50 51°31.3 2°52.639 -999 262 7.1 101440 51
2011-03-15 10:51 51°31.302 2°52.639 3 262 7.1 101430 49
2011-03-15 10:52 51°31.304 2°52.638 0.2 263 7.1 101430 49
2011-03-15 10:53 51°31.305 2°52.638 -999 264 7.1 101430 51
2011-03-15 10:54 51°31.305 2°52.639 3.3 264 7.1 101450 50
2011-03-15 10:55 51°31.304 2°52.638 1.9 265 7.1 101440 49
2011-03-15 10:56 51°31.303 2°52.638 3.6 262 7.1 101440 52
2011-03-15 10:57 51°31.301 2°52.639 0.5 265 7.1 101430 49
2011-03-15 10:58 51°31.299 2°52.639 1.7 261 7.1 101430 51
2011-03-15 10:59 51°31.301 2°52.638 0.9 263 7.1 101430 51
2011-03-15 11:00 51°31.303 2°52.638 3.5 264 7.1 101440 52
2011-03-15 11:01 51°31.305 2°52.637 0.9 265 7.1 101440 52
2011-03-15 11:02 51°31.305 2°52.636 0.2 267 7.1 101440 51
2011-03-15 11:03 51°31.305 2°52.636 4.2 263 7.1 101440 51
2011-03-15 11:04 51°31.304 2°52.636 4.6 262 7.2 101430 50
2011-03-15 11:05 51°31.305 2°52.636 4.2 261 7.2 101420 51
2011-03-15 11:06 51°31.306 2°52.636 3.2 262 7.2 101420 49
2011-03-15 11:07 51°31.306 2°52.635 5.1 262 7.2 101420 49
2011-03-15 11:08 51°31.305 2°52.636 5.9 262 7.3 101420 50
2011-03-15 11:09 51°31.305 2°52.637 3.5 263 7.3 101420 49
2011-03-15 11:10 51°31.304 2°52.637 4.7 264 7.3 101430 50
2011-03-15 11:11 51°31.304 2°52.638 1.5 261 7.4 101430 52
2011-03-15 11:12 51°31.304 2°52.638 4.3 261 7.4 101440 49
2011-03-15 11:13 51°31.304 2°52.638 4 262 7.5 101440 51
2011-03-15 11:14 51°31.3 2°52.633 3.6 265 7.4 101440 49
2011-03-15 11:15 51°31.291 2°52.623 5 270 7.4 101430 51
2011-03-15 11:16 51°31.287 2°52.61 3.9 31 7.3 101440 50
2011-03-15 11:17 51°31.288 2°52.603 5.5 33 7.3 101410 49
2011-03-15 11:18 51°31.289 2°52.603 -999 268 7.3 101410 51
2011-03-15 11:19 51°31.272 2°52.578 2.3 38 7.3 101410 52
2011-03-15 11:20 51°31.302 2°52.494 6.9 13 7.5 101410 52
2011-03-15 11:21 51°31.397 2°52.51 10.4 346 7.5 101410 51
2011-03-15 11:22 51°31.503 2°52.646 8.9 341 7.5 101390 51
2011-03-15 11:23 51°31.615 2°52.795 9 340 7.5 101390 50
2011-03-15 11:24 51°31.728 2°52.949 12 342 7.6 101390 51
2011-03-15 11:25 51°31.839 2°53.107 11.3 341 7.7 101390 52
2011-03-15 11:26 51°31.951 2°53.266 11.5 340 7.7 101390 52
2011-03-15 11:27 51°32.063 2°53.426 8.7 340 7.7 101390 52
2011-03-15 11:28 51°32.175 2°53.587 9.4 342 7.7 101390 50
2011-03-15 11:29 51°32.288 2°53.75 9.7 342 7.6 101380 51
2011-03-15 11:30 51°32.4 2°53.913 10 342 7.6 101380 50
2011-03-15 11:31 51°32.519 2°54.062 9.3 342 7.6 101380 52
2011-03-15 11:32 51°32.638 2°54.211 8.6 343 7.6 101370 51
2011-03-15 11:33 51°32.757 2°54.363 11.2 342 7.6 101380 52
2011-03-15 11:34 51°32.876 2°54.513 10.5 342 7.5 101380 51
2011-03-15 11:35 51°32.991 2°54.666 9.4 339 7.5 101390 52
2011-03-15 11:36 51°33.101 2°54.826 9.9 338 7.5 101390 52
2011-03-15 11:37 51°33.197 2°55.006 9.2 335 7.5 101390 51
2011-03-15 11:38 51°33.268 2°55.21 10 331 7.5 101400 51
2011-03-15 11:39 51°33.294 2°55.406 8.4 322 7.5 101400 51
2011-03-15 11:40 51°33.286 2°55.546 8.1 316 7.5 101390 49
2011-03-15 11:41 51°33.264 2°55.657 7.9 34 7.5 101390 50
2011-03-15 11:42 51°33.251 2°55.737 7.4 35 7.5 101390 51
2011-03-15 11:43 51°33.248 2°55.791 7 35 7.5 101390 52
2011-03-15 11:44 51°33.247 2°55.829 4 31 7.6 101390 51
2011-03-15 11:45 51°33.247 2°55.856 6.5 31 7.6 101390 52
2011-03-15 11:46 51°33.249 2°55.875 0.1 35 7.6 101390 52
2011-03-15 11:47 51°33.251 2°55.888 -999 316 7.6 101390 50
2011-03-15 11:48 51°33.234 2°55.945 8.1 247 7.6 101380 51
2011-03-15 11:49 51°33.126 2°55.976 7.7 243 7.7 101400 50
2011-03-15 11:50 51°33.069 2°56.082 8.2 328 7.7 101390 50
2011-03-15 11:51 51°33.113 2°56.165 7.3 357 7.7 101380 51
2011-03-15 11:52 51°33.158 2°56.174 6.7 13 7.6 101380 50
2011-03-15 11:53 51°33.189 2°56.166 6.9 17 7.5 101380 51
2011-03-15 11:54 51°33.215 2°56.152 5.2 29 7.5 101390 48
2011-03-15 11:55 51°33.235 2°56.135 5.3 30 7.5 101390 48
2011-03-15 11:56 51°33.25 2°56.125 5.1 23 7.5 101380 49
2011-03-15 11:57 51°33.261 2°56.119 6.2 18 7.5 101380 51
2011-03-15 11:58 51°33.261 2°56.112 5.3 27 7.6 101380 48
2011-03-15 11:59 51°33.261 2°56.109 5.5 33 7.6 101390 49
2011-03-15 12:00 51°33.276 2°56.06 0.1 39 7.5 101390 51
2011-03-15 12:01 51°33.249 2°55.998 3.4 268 7.7 101390 52
2011-03-15 12:02 51°33.202 2°55.942 3.9 34 7.7 101390 51
2011-03-15 12:03 51°33.186 2°55.883 2.2 37 7.7 101390 52
2011-03-15 12:04 51°33.203 2°55.83 4.1 36 7.7 101380 52
2011-03-15 12:05 51°33.227 2°55.797 5.3 29 7.6 101380 52
2011-03-15 12:06 51°33.249 2°55.775 4.8 29 7.6 101380 50
2011-03-15 12:07 51°33.268 2°55.761 4.6 27 7.6 101390 52
2011-03-15 12:08 51°33.291 2°55.74 4.7 34 7.6 101380 48
2011-03-15 12:09 51°33.301 2°55.683 5 38 7.6 101370 52
2011-03-15 12:10 51°33.27 2°55.66 5.6 252 7.7 101370 49
2011-03-15 12:11 51°33.229 2°55.705 6.1 238 7.8 101370 51
2011-03-15 12:12 51°33.179 2°55.778 7.6 239 7.8 101370 49
2011-03-15 12:13 51°33.135 2°55.835 7.3 244 7.9 101360 52
2011-03-15 12:14 51°33.103 2°55.876 7.3 243 7.9 101370 50
2011-03-15 12:15 51°33.084 2°55.914 5.4 242 7.9 101370 51
2011-03-15 12:16 51°33.071 2°55.949 6.3 242 8 101360 51
2011-03-15 12:17 51°33.061 2°55.982 5.2 240 8 101360 50
2011-03-15 12:18 51°33.055 2°56.015 5.6 31 7.9 101360 48
2011-03-15 12:19 51°33.054 2°56.04 5.9 37 7.9 101360 49
2011-03-15 12:20 51°33.053 2°56.059 6.1 234 8 101360 50
2011-03-15 12:21 51°33.053 2°56.073 6 237 8 101370 50
2011-03-15 12:22 51°33.055 2°56.083 5.4 239 8 101370 50
2011-03-15 12:23 51°33.057 2°56.089 4.7 239 8 101370 48
2011-03-15 12:24 51°33.058 2°56.093 5 243 8 101370 48
2011-03-15 12:25 51°33.06 2°56.094 5.2 247 8 101370 49
2011-03-15 12:26 51°33.061 2°56.094 6 250 8.1 101370 49
2011-03-15 12:27 51°33.063 2°56.092 4.9 256 8.1 101370 51
2011-03-15 12:28 51°33.065 2°56.091 6.4 257 8.2 101360 48
2011-03-15 12:29 51°33.067 2°56.088 7.9 256 8.2 101370 48
2011-03-15 12:30 51°33.067 2°56.087 6.5 258 8.2 101360 48
2011-03-15 12:31 51°33.067 2°56.085 7.2 259 8.3 101370 50
2011-03-15 12:32 51°33.068 2°56.084 6.1 259 8.3 101360 50
2011-03-15 12:33 51°33.069 2°56.084 6.7 254 8.3 101370 49
2011-03-15 12:34 51°33.069 2°56.084 6.4 252 8.4 101370 49
2011-03-15 12:35 51°33.07 2°56.084 5 253 8.5 101360 50
2011-03-15 12:36 51°33.071 2°56.084 5.9 247 8.5 101370 49
2011-03-15 12:37 51°33.071 2°56.084 5.9 246 8.5 101360 50
2011-03-15 12:38 51°33.071 2°56.084 5.8 249 8.6 101360 48
2011-03-15 12:39 51°33.071 2°56.082 4.9 250 8.5 101350 51
2011-03-15 12:40 51°33.071 2°56.081 5.7 251 8.6 101360 50
2011-03-15 12:41 51°33.07 2°56.079 5.1 252 8.6 101360 50
2011-03-15 12:42 51°33.068 2°56.077 5.1 249 8.7 101350 51
2011-03-15 12:43 51°33.067 2°56.075 5.5 251 8.7 101340 48
2011-03-15 12:44 51°33.064 2°56.074 5.5 248 8.7 101350 48
2011-03-15 12:45 51°33.062 2°56.073 5.8 252 8.8 101350 48
2011-03-15 12:46 51°33.059 2°56.071 5.1 248 8.8 101340 49
2011-03-15 12:47 51°33.057 2°56.07 5 251 8.8 101350 50
2011-03-15 12:48 51°33.055 2°56.068 5.3 250 8.8 101360 47
2011-03-15 12:49 51°33.053 2°56.067 6.1 251 8.8 101350 48
2011-03-15 12:50 51°33.05 2°56.066 4.7 251 8.8 101350 47
2011-03-15 12:51 51°33.046 2°56.066 4.8 247 8.8 101340 50
2011-03-15 12:52 51°33.042 2°56.066 5.5 250 8.8 101340 47
2011-03-15 12:53 51°33.039 2°56.066 4.7 244 8.8 101340 50
2011-03-15 12:54 51°33.036 2°56.066 4.6 248 8.8 101340 47
2011-03-15 12:55 51°33.032 2°56.065 4.3 251 8.8 101340 50
2011-03-15 12:56 51°33.029 2°56.065 4.9 250 8.9 101340 50
2011-03-15 12:57 51°33.025 2°56.064 4.3 249 8.9 101340 49
2011-03-15 12:58 51°33.021 2°56.064 5.1 246 8.9 101340 47
2011-03-15 12:59 51°33.017 2°56.063 5.3 246 8.9 101330 47
2011-03-15 13:00 51°33.012 2°56.061 5.2 250 8.9 101330 50
2011-03-15 13:01 51°33.006 2°56.062 5.4 248 8.9 101340 47
2011-03-15 13:02 51°33.016 2°56.043 4.7 257 8.9 101340 50
2011-03-15 13:03 51°33.051 2°56.022 4.9 270 8.9 101340 50
2011-03-15 13:04 51°33.087 2°56.021 5.6 39 8.7 101340 49
2011-03-15 13:05 51°33.11 2°56.025 4.5 31 8.6 101330 47
2011-03-15 13:06 51°33.112 2°56.02 -999 35 8.5 101340 48
2011-03-15 13:07 51°33.11 2°56.014 0.1 33 8.4 101340 49
2011-03-15 13:08 51°33.107 2°56.007 0.1 270 8.3 101340 46
2011-03-15 13:09 51°33.099 2°56.005 3 258 8.3 101330 49
2011-03-15 13:10 51°33.079 2°56.03 2.7 237 8.3 101330 48
2011-03-15 13:11 51°33.066 2°56.062 2.5 30 8.3 101330 50
2011-03-15 13:12 51°33.054 2°56.096 2.4 233 8.4 101330 49
2011-03-15 13:13 51°33.035 2°56.137 3.5 238 8.4 101340 50
2011-03-15 13:14 51°33.012 2°56.182 2.9 239 8.4 101330 48
2011-03-15 13:15 51°32.993 2°56.216 2.6 30 8.4 101330 51
2011-03-15 13:16 51°32.977 2°56.241 2.3 242 8.4 101340 51
2011-03-15 13:17 51°32.966 2°56.26 2 243 8.5 101340 47
2011-03-15 13:18 51°32.955 2°56.276 2.2 249 8.5 101340 50
2011-03-15 13:19 51°32.969 2°56.264 0.1 263 8.6 101330 49
2011-03-15 13:20 51°32.99 2°56.258 0.6 35 8.6 101340 50
2011-03-15 13:21 51°32.973 2°56.193 -999 41 8.5 101330 49
2011-03-15 13:22 51°32.988 2°56.021 -999 10 8.5 101330 49
2011-03-15 13:23 51°33.033 2°55.879 -999 19 8.4 101320 48
2011-03-15 13:24 51°33.068 2°55.83 -999 16 8.3 101320 49
2011-03-15 13:25 51°33.092 2°55.806 0.9 10 8.1 101320 49
2011-03-15 13:26 51°33.108 2°55.794 0.1 9 8 101340 47
2011-03-15 13:27 51°33.119 2°55.787 1.6 4 7.9 101330 47
2011-03-15 13:28 51°33.127 2°55.78 0.9 5 7.9 101330 49
2011-03-15 13:29 51°33.133 2°55.772 0.9 2 7.8 101330 51
2011-03-15 13:30 51°33.136 2°55.763 0.1 360 7.8 101330 50
2011-03-15 13:31 51°33.137 2°55.753 1.2 8 7.8 101330 49
2011-03-15 13:32 51°33.137 2°55.741 1.1 18 7.8 101330 50
2011-03-15 13:33 51°33.134 2°55.731 -999 23 7.8 101330 50
2011-03-15 13:34 51°33.132 2°55.721 0.1 21 7.9 101330 50
2011-03-15 13:35 51°33.127 2°55.713 -999 30 7.9 101320 50
2011-03-15 13:36 51°33.124 2°55.704 0.1 34 7.9 101330 50
2011-03-15 13:37 51°33.126 2°55.684 0.1 30 8 101330 50
2011-03-15 13:38 51°33.135 2°55.656 1 20 8 101320 50
2011-03-15 13:39 51°33.153 2°55.635 1.5 8 7.9 101320 48
2011-03-15 13:40 51°33.199 2°55.591 2.4 14 7.9 101310 48
2011-03-15 13:41 51°33.237 2°55.454 -999 34 7.9 101310 50
2011-03-15 13:42 51°33.213 2°55.238 -999 42 7.9 101310 50
2011-03-15 13:43 51°33.101 2°55.056 1.7 249 8 101320 50
2011-03-15 13:44 51°32.931 2°55.016 4.4 243 8.1 101310 51
2011-03-15 13:45 51°32.719 2°54.978 5.9 34 8.3 101310 51
2011-03-15 13:46 51°32.498 2°54.988 6.5 240 8.3 101290 49
2011-03-15 13:47 51°32.278 2°54.998 7.5 235 8.4 101300 48
2011-03-15 13:48 51°32.053 2°55.005 6.6 33 8.5 101290 51
2011-03-15 13:49 51°31.834 2°55.004 6 239 8.7 101300 50
2011-03-15 13:50 51°31.616 2°55.009 6.1 241 8.7 101290 48
2011-03-15 13:51 51°31.403 2°55.01 6.6 238 8.8 101290 49
2011-03-15 13:52 51°31.18 2°55.012 6.3 34 8.7 101290 48
2011-03-15 13:53 51°30.961 2°55.019 5 316 8.6 101300 50
2011-03-15 13:54 51°30.742 2°55.026 6.2 317 8.4 101300 50
2011-03-15 13:55 51°30.522 2°55.029 5.9 316 8.3 101300 48
2011-03-15 13:56 51°30.301 2°55.029 6 319 8.3 101300 47
2011-03-15 13:57 51°30.08 2°55.005 4.5 319 8.3 101310 50
2011-03-15 13:58 51°29.863 2°54.942 4.9 320 8.3 101300 50
2011-03-15 13:59 51°29.639 2°54.873 5 319 8.3 101300 48
2011-03-15 14:00 51°29.417 2°54.809 5 315 8.3 101300 48
2011-03-15 14:01 51°29.196 2°54.74 4.9 318 8.3 101300 50
2011-03-15 14:02 51°28.979 2°54.677 5.4 316 8.3 101300 50
2011-03-15 14:03 51°28.755 2°54.613 5.3 32 8.3 101300 51
2011-03-15 14:04 51°28.538 2°54.556 4.8 32 8.4 101290 50
2011-03-15 14:05 51°28.314 2°54.498 4.8 232 8.3 101290 48
2011-03-15 14:06 51°28.093 2°54.436 1.9 32 8.4 101280 50
2011-03-15 14:07 51°27.875 2°54.375 -999 35 8.4 101280 49
2011-03-15 14:08 51°27.648 2°54.312 -999 35 8.4 101280 49
2011-03-15 14:09 51°27.427 2°54.248 -999 236 8.4 101270 49
2011-03-15 14:10 51°27.208 2°54.179 -999 35 8.4 101270 49
2011-03-15 14:11 51°26.995 2°54.084 -999 236 8.4 101280 49
2011-03-15 14:12 51°26.889 2°53.782 -999 352 8.4 101280 49
2011-03-15 14:13 51°26.82 2°53.449 -999 349 8.3 101270 49
2011-03-15 14:14 51°26.734 2°53.118 -999 355 8.2 101280 49
2011-03-15 14:15 51°26.647 2°52.785 -999 355 8.1 101270 49
2011-03-15 14:16 51°26.553 2°52.455 -999 34 8.1 101280 49
2011-03-15 14:17 51°26.38 2°52.225 -999 35 8.2 101270 50
2011-03-15 14:18 51°26.205 2°51.994 -999 37 8.3 101270 50
2011-03-15 14:19 51°26.006 2°51.866 4.7 242 8.4 101270 49
2011-03-15 14:20 51°25.786 2°51.865 4.8 240 8.4 101260 51
2011-03-15 14:21 51°25.562 2°51.858 4.7 239 8.4 101260 48
2011-03-15 14:22 51°25.342 2°51.843 4.7 238 8.3 101250 51
2011-03-15 14:23 51°25.112 2°51.83 4.5 30 8.3 101250 50
2011-03-15 14:24 51°24.887 2°51.81 4.7 31 8.3 101250 49
2011-03-15 14:25 51°24.66 2°51.795 4.3 239 8.3 101250 50
2011-03-15 14:26 51°24.435 2°51.78 5 32 8.4 101250 50
2011-03-15 14:27 51°24.207 2°51.763 4.6 241 8.4 101240 51
2011-03-15 14:28 51°23.981 2°51.747 5.2 31 8.4 101240 50
2011-03-15 14:29 51°23.758 2°51.729 5.7 240 8.4 101240 47
2011-03-15 14:30 51°23.528 2°51.708 4 238 8.4 101240 48
2011-03-15 14:31 51°23.304 2°51.691 4.1 238 8.3 101240 50
2011-03-15 14:32 51°23.076 2°51.673 3.8 238 8.4 101240 50
2011-03-15 14:33 51°22.845 2°51.65 5.3 241 8.4 101230 49
2011-03-15 14:34 51°22.621 2°51.634 5.9 240 8.4 101240 48
2011-03-15 14:35 51°22.393 2°51.628 6.2 241 8.5 101230 50
2011-03-15 14:36 51°22.174 2°51.639 7.3 239 8.5 101230 50
2011-03-15 14:37 51°21.949 2°51.67 6.9 242 8.5 101230 49
2011-03-15 14:38 51°21.724 2°51.663 5.2 239 8.6 101230 48
2011-03-15 14:39 51°21.498 2°51.659 4.8 34 8.6 101230 49
2011-03-15 14:40 51°21.277 2°51.651 4.8 34 8.6 101230 47
2011-03-15 14:41 51°21.051 2°51.689 5.6 237 8.6 101230 48
2011-03-15 14:42 51°20.83 2°51.711 5.2 32 8.6 101220 48
2011-03-15 14:43 51°20.607 2°51.734 5.1 236 8.6 101220 48
2011-03-15 14:44 51°20.382 2°51.755 6.3 237 8.5 101220 49
2011-03-15 14:45 51°20.164 2°51.779 6.3 237 8.5 101220 48
2011-03-15 14:46 51°19.935 2°51.796 5.4 31 8.6 101220 50
2011-03-15 14:47 51°19.712 2°51.812 6.9 240 8.6 101220 50
2011-03-15 14:48 51°19.493 2°51.828 5.3 241 8.7 101220 50
2011-03-15 14:49 51°19.265 2°51.843 6.1 238 8.8 101210 49
2011-03-15 14:50 51°19.045 2°51.858 6.5 240 8.8 101210 50
2011-03-15 14:51 51°18.82 2°51.885 6.5 239 8.8 101210 49
2011-03-15 14:52 51°18.602 2°51.919 5.6 238 8.8 101210 50
2011-03-15 14:53 51°18.375 2°51.952 5.7 239 8.8 101210 50
2011-03-15 14:54 51°18.152 2°51.981 6 238 8.8 101210 49
2011-03-15 14:55 51°17.928 2°52.02 5.9 240 8.8 101210 47
2011-03-15 14:56 51°17.703 2°52.06 6 239 8.9 101210 49
2011-03-15 14:57 51°17.481 2°52.101 6.8 239 8.9 101210 50
2011-03-15 14:58 51°17.25 2°52.139 6.9 240 9 101200 47
2011-03-15 14:59 51°17.026 2°52.181 6.9 243 9.1 101200 50
2011-03-15 15:00 51°16.808 2°52.262 7.2 240 9.2 101190 47
2011-03-15 15:01 51°16.633 2°52.356 6.2 248 9.3 101190 48
2011-03-15 15:02 51°16.504 2°52.43 6.7 245 9.3 101190 48
2011-03-15 15:03 51°16.38 2°52.531 6.7 242 9.3 101190 46
2011-03-15 15:04 51°16.252 2°52.663 7.4 237 9.4 101180 46
2011-03-15 15:05 51°16.143 2°52.847 8.3 37 9.5 101170 48
2011-03-15 15:06 51°16.028 2°53.034 9.1 236 9.5 101170 46
2011-03-15 15:07 51°15.908 2°53.228 8.8 232 9.5 101170 48
2011-03-15 15:08 51°15.789 2°53.414 9.1 237 9.5 101160 46
2011-03-15 15:09 51°15.657 2°53.59 9.3 238 9.5 101160 47
2011-03-15 15:10 51°15.523 2°53.751 9.5 239 9.6 101160 47
2011-03-15 15:11 51°15.385 2°53.922 8.5 238 9.6 101160 48
2011-03-15 15:12 51°15.249 2°54.083 8.6 238 9.6 101170 47
2011-03-15 15:13 51°15.111 2°54.258 8.5 238 9.7 101160 46
2011-03-15 15:14 51°14.974 2°54.419 7.1 239 9.7 101170 47
2011-03-15 15:15 51°14.831 2°54.586 7 240 9.6 101170 46
2011-03-15 15:16 51°14.693 2°54.75 7.3 238 9.5 101170 46
2011-03-15 15:17 51°14.553 2°54.91 7.1 33 9.5 101170 48
2011-03-15 15:18 51°14.427 2°55.082 6.9 236 9.4 101170 46
2011-03-15 15:19 51°14.287 2°55.254 7 38 9.3 101170 48
2011-03-15 15:20 51°14.144 2°55.394 4.8 241 9.3 101180 46
2011-03-15 15:21 51°14.021 2°55.484 3.3 244 9.6 101180 49
2011-03-15 15:22 51°13.917 2°55.561 1.8 245 9.9 101180 49
2011-03-15 15:23 51°13.811 2°55.646 4.8 321 10.5 101180 50
2011-03-15 15:24 51°13.736 2°55.746 6.3 319 11.5 101170 51
2011-03-15 15:25 51°13.694 2°55.835 4.7 36 12.7 101160 50
2011-03-15 15:26 51°13.67 2°55.922 6.3 323 13.6 101160 45